Location: *
(13.2257°S, 48.7193°W)
Time: 01:15:30
(UTC+00:00)

Meteor 1-28 Rocket - Pass Details

Date: 25 May 2026
Orbit: 419 x 427 km, 97.6° (Epoch: 10 June)

Event Time Altitude Azimuth Distance (km) Brightness Sun altitude
Rises 07:46:02 0° 142° (SE) 2,382 6.8 -24.5°
Reaches altitude 10° 07:48:45 10° 116° (ESE) 1,508 6.1 -23.8°
Maximum altitude 07:50:35 14° 81° (E) 1,264 6.1 -23.4°
Drops below altitude 10° 07:52:24 10° 46° (NE) 1,497 6.4 -23.0°
Sets 07:55:04 0° 21° (NNE) 2,352 7.1 -22.4°
